Location: Beneden-Haastrecht
(52.0012°N, 4.7557°E)
Time: 03:36:39
(UTC+00:00)

Cosmos 304 Rocket - Pass Details

Date: 24 October 2020
Orbit: 679 x 688 km, 74.0° (Epoch: 27 November)

Event Time Altitude Azimuth Distance (km) Brightness Sun altitude
Rises 17:08:58 0° 205° (SSW) 3,026 7.6 -7.0°
Reaches altitude 10° 17:11:16 10° 206° (SSW) 2,115 6.8 -7.4°
Maximum altitude 17:16:02 84° 294° (WNW) 691 3.9 -8.1°
Drops below altitude 10° 17:20:51 10° 24° (NNE) 2,132 6.0 -8.9°
Sets 17:23:10 0° 25° (NNE) 3,053 6.8 -9.2°
